Location: Chimay
(50.0486°N, 4.3171°E)
Time: 10:06:08
(UTC+00:00)

Cosmos 2242 Rocket - Pass Details

Date: 08 August 2020
Orbit: 618 x 652 km, 82.5° (Epoch: 20 September)

Event Time Altitude Azimuth Distance (km) Brightness Sun altitude
Rises 20:38:33 0° 356° (N) 2,936 7.8 -12.1°
Reaches altitude 10° 20:40:59 10° 5° (N) 2,018 6.8 -12.3°
Maximum altitude 20:45:05 35° 72° (ENE) 1,015 4.4 -12.8°
Enters shadow 20:47:33 20° 126° (SE) 1,450 4.8 -13.1°
